EW8833 Weather Reports


time (UTC)temp
F
wind
direction
speed
knots
gust
knots
rain 1hr
in
rain 24hr
in
rain mn
in
humidity
%
barometer
mb
20260906223507 85 258 2.6 4.3 0.00 0.00 0.00 42 826.1
20260906223225 86 247 2.6 4.3 0.00 0.00 0.00 42 826.2
20260906222443 86 221 2.6 5.2 0.00 0.00 0.00 41 826.3
20260906221939 87 213 2.6 5.2 0.00 0.00 0.00 41 826.3
20260906221441 87 163 2.6 5.2 0.00 0.00 0.00 40 826.3
20260906220938 88 210 2.6 5.2 0.00 0.00 0.00 40 826.1
20260906220441 88 173 2.6 5.2 0.00 0.00 0.00 40 826.2
20260906220154 89 212 3.5 7.8 0.00 0.00 0.00 39 826.4
20260906215434 89 152 3.5 7.8 0.00 0.00 0.00 39 826.4
20260906214933 89 87 4.3 7.0 0.00 0.00 0.00 39 826.4
20260906214435 89 140 4.3 7.8 0.00 0.00 0.00 39 826.6
20260906213429 89 110 3.5 7.0 0.00 0.00 0.00 39 826.7
20260906213144 89 222 3.5 7.8 0.00 0.00 0.00 39 826.7
20260906212424 88 92 3.5 7.8 0.00 0.00 0.00 39 826.7
20260906211640 88 205 3.5 6.1 0.00 0.00 0.00 39 826.9
20260906210922 87 198 2.6 6.1 0.00 0.00 0.00 39 826.9
20260906210420 87 194 4.3 6.1 0.00 0.00 0.00 40 827.1
20260906205919 87 131 4.3 9.6 0.00 0.00 0.00 40 827.2
20260906205645 87 114 5.2 9.6 0.00 0.00 0.00 40 827.2
20260906204918 87 119 5.2 9.6 0.00 0.00 0.00 40 827.3
20260906204404 86 136 5.2 9.6 0.00 0.00 0.00 41 827.3
20260906204138 86 102 4.3 11.3 0.00 0.00 0.00 41 827.3
20260906203604 85 98 2.6 8.7 0.00 0.00 0.00 41 827.3
20260906203030 85 56 3.5 9.6 0.00 0.00 0.00 39 827.3
20260906202306 85 113 4.3 9.6 0.00 0.00 0.00 38 827.3
20260906201804 85 92 4.3 8.7 0.00 0.00 0.00 41 827.4
20260906201304 85 102 4.3 8.7 0.00 0.00 0.00 41 827.3
20260906200752 85 93 4.3 8.7 0.00 0.00 0.00 41 827.3
20260906200250 85 82 4.3 8.7 0.00 0.00 0.00 39 827.4
20260906195750 86 98 4.3 7.8 0.00 0.00 0.00 40 827.4
20260906195250 86 176 5.2 8.7 0.00 0.00 0.00 41 827.5
20260906195009 86 120 3.5 8.7 0.00 0.00 0.00 41 827.6
20260906194512 85 342 2.6 7.0 0.00 0.00 0.00 43 827.5
20260906193248 84 86 3.5 7.0 0.00 0.00 0.00 42 827.8
20260906192750 84 73 3.5 7.0 0.00 0.00 0.00 44 827.8
20260906192250 84 57 3.5 7.0 0.00 0.00 0.00 45 827.8
20260906191744 84 101 4.3 9.6 0.00 0.00 0.00 47 827.9
20260906191244 83 38 4.3 9.6 0.00 0.00 0.00 47 827.9
20260906190742 83 81 3.5 8.7 0.00 0.00 0.00 47 828.0
20260906190243 83 107 3.5 9.6 0.00 0.00 0.00 49 828.0
20260906185743 83 81 4.3 9.6 0.00 0.00 0.00 49 828.1
20260906185446 83 51 4.3 7.8 0.00 0.00 0.00 47 828.2
20260906184944 83 173 4.3 9.6 0.00 0.00 0.00 49 828.3
20260906184222 82 121 5.2 9.6 0.00 0.00 0.00 50 828.4
20260906183723 82 71 4.3 8.7 0.00 0.00 0.00 51 828.5
20260906183444 82 109 3.5 8.7 0.00 0.00 0.00 52 828.6
20260906182720 82 130 3.5 7.0 0.00 0.00 0.00 53 828.7
20260906182435 81 76 4.3 8.7 0.00 0.00 0.00 52 828.7
20260906181720 81 91 3.5 8.7 0.00 0.00 0.00 53 828.8
20260906181221 81 90 5.2 9.6 0.00 0.00 0.00 52 828.8
20260906180719 80 63 5.2 9.6 0.00 0.00 0.00 53 828.9
20260906180218 80 90 4.3 8.7 0.00 0.00 0.00 54 829.0
20260906175717 80 0 5.2 8.7 0.00 0.00 0.00 54 829.0
20260906175439 80 74 6.1 8.7 0.00 0.00 0.00 56 829.1
20260906174714 79 83 6.1 9.6 0.00 0.00 0.00 57 829.2
20260906174202 79 57 6.1 9.6 0.00 0.00 0.00 56 829.3
20260906173633 79 107 5.2 9.6 0.00 0.00 0.00 57 829.5
20260906173058 79 132 5.2 9.6 0.00 0.00 0.00 57 829.6
20260906172541 79 105 4.3 8.7 0.00 0.00 0.00 56 829.6
20260906171515 78 136 4.3 7.8 0.00 0.00 0.00 57 829.7
20260906171013 78 55 4.3 7.8 0.00 0.00 0.00 56 829.7
20260906170456 78 98 4.3 7.8 0.00 0.00 0.00 57 829.7
20260906165929 77 85 3.5 7.8 0.00 0.00 0.00 58 829.8
20260906165428 77 267 3.5 7.8 0.00 0.00 0.00 60 830.0
20260906164918 76 130 3.5 7.8 0.00 0.00 0.00 60 830.0
20260906164418 76 116 2.6 6.1 0.00 0.00 0.00 61 830.0
20260906163913 76 129 3.5 7.0 0.00 0.00 0.00 61 830.0
20260906163413 76 53 3.5 7.0 0.00 0.00 0.00 61 829.9
20260906162911 76 74 3.5 6.1 0.00 0.00 0.00 61 829.9
20260906162402 76 76 2.6 6.1 0.00 0.00 0.00 60 830.0
20260906161902 75 135 2.6 7.0 0.00 0.00 0.00 60 830.1
20260906161402 75 74 3.5 7.0 0.00 0.00 0.00 59 830.0
20260906160902 76 67 2.6 7.0 0.00 0.00 0.00 59 830.0
20260906160624 76 59 3.5 7.0 0.00 0.00 0.00 56 829.9
20260906155858 76 136 1.7 7.0 0.00 0.00 0.00 58 829.9
20260906155358 75 116 1.7 3.5 0.00 0.00 0.00 62 829.8
20260906155116 74 129 1.7 6.1 0.00 0.00 0.00 63 829.9
20260906154358 74 123 1.7 6.1 0.00 0.00 0.00 64 829.8
20260906153858 74 55 1.7 5.2 0.00 0.00 0.00 65 829.9
20260906153358 73 176 1.7 4.3 0.00 0.00 0.00 66 829.9
20260906152858 72 92 1.7 3.5 0.00 0.00 0.00 68 830.0
20260906151904 71 166 1.7 3.5 0.00 0.00 0.00 71 830.0
20260906151341 71 143 0.9 3.5 0.00 0.00 0.00 72 830.1
20260906150842 70 5 0.9 3.5 0.00 0.00 0.00 73 830.2
20260906150343 69 115 0.9 3.5 0.00 0.00 0.00 74 830.1
20260906145841 69 122 0.9 3.5 0.00 0.00 0.00 75 830.2
20260906145343 68 161 0.9 2.6 0.00 0.00 0.00 76 830.2
20260906144840 68 51 0.9 2.6 0.00 0.00 0.00 76 830.2
20260906144343 68 90 1.7 5.2 0.00 0.00 0.00 76 830.2
20260906143822 68 91 2.6 5.2 0.00 0.00 0.00 75 830.1
20260906143512 68 100 1.7 4.3 0.00 0.00 0.00 74 830.1
20260906142442 68 105 1.7 4.3 0.00 0.00 0.00 76 830.1
20260906141723 68 104 2.6 5.2 0.00 0.00 0.00 77 830.1
20260906141222 67 100 2.6 5.2 0.00 0.00 0.00 78 830.1
20260906140941 67 74 2.6 5.2 0.00 0.00 0.00 78 830.1
20260906140219 66 89 2.6 5.2 0.00 0.00 0.00 80 830.1
20260906135718 65 94 1.7 4.3 0.00 0.00 0.00 81 830.0
20260906135216 65 123 0.9 2.6 0.00 0.00 0.00 82 829.9
20260906134718 64 105 0.0 2.6 0.00 0.00 0.00 83 829.9
20260906134429 63 217 0.0 1.7 0.00 0.00 0.00 84 830.0
20260906133208 63 291 0.0 0.9 0.00 0.00 0.00 83 830.0
20260906132702 62 291 0.0 0.9 0.00 0.00 0.00 81 830.0
20260906132159 62 291 0.0 0.9 0.00 0.00 0.00 81 830.0
20260906131659 62 291 0.9 1.7 0.00 0.00 0.00 81 829.9
20260906131154 62 291 0.9 1.7 0.00 0.00 0.00 82 829.9
20260906130646 62 291 0.9 2.6 0.00 0.00 0.00 82 829.9
20260906130144 62 248 1.7 2.6 0.00 0.00 0.00 83 829.8
20260906125647 62 246 1.7 2.6 0.00 0.00 0.00 82 829.8
20260906125135 62 246 1.7 3.5 0.00 0.00 0.00 83 829.8
20260906124633 62 252 1.7 3.5 0.00 0.00 0.00 81 829.8
20260906124122 62 290 0.9 2.6 0.00 0.00 0.00 80 829.7
20260906123622 62 277 0.9 1.7 0.00 0.00 0.00 80 829.8
20260906122621 62 277 0.9 2.6 0.00 0.00 0.00 81 829.8
20260906122122 62 233 0.9 2.6 0.00 0.00 0.00 82 829.8
20260906121620 62 273 0.9 1.7 0.00 0.00 0.00 82 829.8
20260906121115 62 273 0.9 1.7 0.00 0.00 0.00 82 829.7
20260906120616 62 273 0.9 2.6 0.00 0.00 0.00 82 829.7
20260906120115 63 273 1.7 2.6 0.00 0.00 0.00 83 829.5
20260906115105 63 253 0.9 3.5 0.00 0.00 0.00 84 829.5
20260906114606 63 250 0.9 2.6 0.00 0.00 0.00 82 829.7
20260906114106 63 250 1.7 2.6 0.00 0.00 0.00 83 829.8
20260906113834 63 290 1.7 2.6 0.00 0.00 0.00 82 829.6
20260906113103 63 290 0.9 2.6 0.00 0.00 0.00 81 829.7
20260906112602 63 290 0.0 1.7 0.00 0.00 0.00 80 829.6
20260906112100 63 290 0.0 1.7 0.00 0.00 0.00 78 829.7
20260906111558 63 290 0.9 1.7 0.00 0.00 0.00 78 829.5
20260906111058 63 290 1.7 2.6 0.00 0.00 0.00 77 829.4
20260906110556 63 290 1.7 2.6 0.00 0.00 0.00 77 829.4
20260906110056 63 294 0.9 2.6 0.00 0.00 0.00 77 829.5
20260906105544 63 317 0.9 2.6 0.00 0.00 0.00 76 829.6
20260906105042 63 317 1.7 2.6 0.00 0.00 0.00 74 829.6
20260906104540 63 338 1.7 3.5 0.00 0.00 0.00 71 829.6
20260906104043 64 330 1.7 3.5 0.00 0.00 0.00 69 829.7
20260906103534 64 347 0.9 1.7 0.00 0.00 0.00 65 829.8
20260906103031 64 355 0.9 1.7 0.00 0.00 0.00 64 829.7
20260906102520 64 319 0.9 1.7 0.00 0.00 0.00 64 829.7
20260906102018 65 214 0.9 1.7 0.00 0.00 0.00 63 829.6
20260906101518 65 214 0.9 1.7 0.00 0.00 0.00 64 829.6
20260906101016 65 214 0.9 2.6 0.00 0.00 0.00 62 829.5
20260906100736 65 207 0.9 2.6 0.00 0.00 0.00 62 829.6
20260906100008 65 254 0.9 2.6 0.00 0.00 0.00 61 829.6
20260906095506 66 254 1.7 2.6 0.00 0.00 0.00 61 829.7
20260906095003 66 277 1.7 3.5 0.00 0.00 0.00 60 829.6
20260906094730 66 277 1.7 3.5 0.00 0.00 0.00 60 829.5
20260906094004 67 219 1.7 2.6 0.00 0.00 0.00 59 829.5
20260906093502 67 189 1.7 3.5 0.00 0.00 0.00 58 829.5
20260906093222 67 209 1.7 3.5 0.00 0.00 0.00 58 829.4
20260906092444 67 195 1.7 3.5 0.00 0.00 0.00 58 829.2
20260906092208 67 217 1.7 3.5 0.00 0.00 0.00 57 829.0
20260906091422 68 230 1.7 2.6 0.00 0.00 0.00 56 829.0
20260906090920 68 281 0.9 2.6 0.00 0.00 0.00 55 828.9
20260906090419 69 114 0.0 0.9 0.00 0.00 0.00 54 828.8
20260906085918 69 114 0.0 1.7 0.00 0.00 0.00 53 828.8
20260906085638 69 114 0.9 2.6 0.00 0.00 0.00 53 828.8
20260906084911 69 114 0.9 2.6 0.00 0.00 0.00 53 828.8
20260906084409 69 182 0.9 2.6 0.00 0.00 0.00 53 828.8
20260906083908 69 148 0.9 2.6 0.00 0.00 0.00 53 828.8
20260906083405 70 74 0.9 2.6 0.00 0.00 0.00 53 828.7
20260906082904 70 73 0.0 1.7 0.00 0.00 0.00 52 828.8
20260906082401 70 73 0.9 3.5 0.00 0.00 0.00 51 828.8
20260906082119 70 73 1.7 4.3 0.00 0.00 0.00 52 828.8
20260906081359 70 87 0.9 4.3 0.00 0.00 0.00 51 828.7
20260906080858 71 227 0.0 1.7 0.00 0.00 0.00 50 828.8
20260906080358 71 227 0.9 1.7 0.00 0.00 0.00 50 828.8
20260906075856 71 273 0.9 2.6 0.00 0.00 0.00 50 828.8
20260906075354 71 273 1.7 3.5 0.00 0.00 0.00 50 828.8
20260906074852 71 273 2.6 3.5 0.00 0.00 0.00 50 828.8
20260906074351 71 270 2.6 3.5 0.00 0.00 0.00 50 828.9
20260906073848 71 264 1.7 3.5 0.00 0.00 0.00 50 828.9
20260906073346 72 290 1.7 2.6 0.00 0.00 0.00 49 829.0
20260906072845 72 182 1.7 2.6 0.00 0.00 0.00 49 829.0
20260906072333 72 115 1.7 2.6 0.00 0.00 0.00 49 829.0
20260906072053 72 256 1.7 2.6 0.00 0.00 0.00 49 828.9
20260906071330 72 256 1.7 2.6 0.00 0.00 0.00 49 828.8
20260906071054 72 272 0.9 1.7 0.00 0.00 0.00 49 828.8
20260906070324 72 272 0.9 1.7 0.00 0.00 0.00 49 828.8
20260906065822 73 313 0.9 2.6 0.00 0.00 0.00 48 828.9
20260906065321 73 69 0.0 2.6 0.00 0.00 0.00 48 828.9
20260906065010 73 263 0.0 1.7 0.00 0.00 0.00 47 828.9
20260906064222 73 263 0.0 1.7 0.00 0.00 0.00 47 828.9
20260906063716 73 263 0.0 1.7 0.00 0.00 0.00 47 828.9
20260906063216 73 240 0.9 2.6 0.00 0.00 0.00 47 828.9
20260906062716 73 323 1.7 4.3 0.00 0.00 0.00 48 828.8
20260906062159 73 303 3.5 4.3 0.00 0.00 0.00 48 828.9
20260906061929 72 293 2.6 4.3 0.00 0.00 0.00 48 828.9
20260906061422 72 283 1.7 3.5 0.00 0.00 0.00 48 829.0
20260906060700 73 290 2.6 4.3 0.00 0.00 0.00 48 829.1
20260906060158 73 291 3.5 4.3 0.00 0.00 0.00 48 829.1
20260906055922 74 282 2.6 4.3 0.00 0.00 0.00 47 829.2
20260906055414 74 269 1.7 3.5 0.00 0.00 0.00 46 829.2
20260906054654 75 196 1.7 4.3 0.00 0.00 0.00 46 829.4
20260906054154 75 189 1.7 4.3 0.00 0.00 0.00 46 829.5
20260906053648 75 227 1.7 3.5 0.00 0.00 0.00 45 829.6
20260906053140 75 135 1.7 3.5 0.00 0.00 0.00 45 829.5
20260906052901 76 209 2.6 3.5 0.00 0.00 0.00 45 829.3
20260906052133 76 242 1.7 3.5 0.00 0.00 0.00 45 829.1
20260906051632 76 255 1.7 3.5 0.00 0.00 0.00 44 829.1
20260906051124 76 265 1.7 3.5 0.00 0.00 0.00 43 829.0
20260906050625 76 228 1.7 3.5 0.00 0.00 0.00 43 829.0
20260906050127 76 134 1.7 4.3 0.00 0.00 0.00 43 829.0
20260906045628 76 213 1.7 4.3 0.00 0.00 0.00 42 829.0
20260906044536 76 344 0.9 2.6 0.00 0.00 0.00 42 828.8
20260906044011 76 268 1.7 2.6 0.00 0.00 0.00 42 828.7
20260906043447 76 268 1.7 2.6 0.00 0.00 0.00 42 828.7
20260906042916 76 270 0.9 2.6 0.00 0.00 0.00 43 828.8
20260906042351 76 254 1.7 4.3 0.00 0.00 0.00 43 828.7
20260906041819 76 247 2.6 4.3 0.00 0.00 0.00 44 828.6
20260906041250 76 245 3.5 5.2 0.00 0.00 0.00 45 828.6
20260906040721 76 236 3.5 5.2 0.00 0.00 0.00 44 828.5
20260906040217 76 254 2.6 4.3 0.00 0.00 0.00 44 828.4
20260906035708 76 237 1.7 2.6 0.00 0.00 0.00 43 828.3
20260906035210 77 279 1.7 2.6 0.00 0.00 0.00 43 828.1
20260906034648 78 327 1.7 2.6 0.00 0.00 0.00 42 828.0
20260906034116 78 346 2.6 4.3 0.00 0.00 0.00 41 828.0
20260906033556 79 344 4.3 7.8 0.00 0.00 0.00 41 828.0
20260906032457 80 124 4.3 9.6 0.00 0.00 0.00 39 828.0
20260906031933 81 126 2.6 6.1 0.00 0.00 0.00 37 827.9
20260906031403 81 191 4.3 7.0 0.00 0.00 0.00 36 827.7
20260906030828 81 134 3.5 7.0 0.00 0.00 0.00 36 827.7
20260906025743 82 264 4.3 7.8 0.00 0.00 0.00 34 827.3
20260906025245 82 275 5.2 8.7 0.00 0.00 0.00 35 827.2
20260906024722 82 270 7.0 9.6 0.00 0.00 0.00 35 827.3
20260906024221 82 286 7.0 11.3 0.00 0.00 0.00 35 827.3
20260906023720 82 275 5.2 11.3 0.00 0.00 0.00 35 827.3
20260906023220 82 262 5.2 7.8 0.00 0.00 0.00 36 827.4
20260906022714 82 264 5.2 7.8 0.00 0.00 0.00 36 827.4
20260906022214 82 285 5.2 7.8 0.00 0.00 0.00 36 827.4
20260906021938 82 246 5.2 7.8 0.00 0.00 0.00 37 827.3
20260906021152 82 255 6.1 13.9 0.00 0.00 0.00 37 827.4
20260906020628 82 257 7.8 13.9 0.00 0.00 0.00 37 827.4
20260906020131 82 249 9.6 14.8 0.00 0.00 0.00 37 827.3
20260906015558 82 287 10.4 17.4 0.00 0.00 0.00 37 827.2
20260906015253 82 273 10.4 17.4 0.00 0.00 0.00 36 827.2
20260906014725 82 287 11.3 16.5 0.00 0.00 0.00 37 827.2
20260906013932 82 290 11.3 15.6 0.00 0.00 0.00 37 827.2
20260906013409 82 294 10.4 15.6 0.00 0.00 0.00 36 827.3
20260906012845 82 274 10.4 14.8 0.00 0.00 0.00 37 827.1
20260906012347 82 290 10.4 15.6 0.00 0.00 0.00 37 827.2
20260906011813 82 282 10.4 15.6 0.00 0.00 0.00 37 827.3
20260906011245 82 300 11.3 17.4 0.00 0.00 0.00 37 827.2
20260906010716 82 289 10.4 15.6 0.00 0.00 0.00 37 827.4
20260906010208 83 298 11.3 15.6 0.00 0.00 0.00 37 827.3
20260906005151 83 289 12.2 17.4 0.00 0.00 0.00 36 827.4
20260906004616 83 298 10.4 17.4 0.00 0.00 0.00 36 827.4
20260906004052 83 315 10.4 16.5 0.00 0.00 0.00 36 827.6
20260906003553 84 286 8.7 14.8 0.00 0.00 0.00 36 827.5
20260906003031 84 309 8.7 14.8 0.00 0.00 0.00 35 827.5
20260906002507 84 306 10.4 14.8 0.00 0.00 0.00 35 827.5
20260906001941 85 272 11.3 14.8 0.00 0.00 0.00 34 827.5
20260906001409 85 309 9.6 16.5 0.00 0.00 0.00 34 827.5
20260906000845 86 286 8.7 15.6 0.00 0.00 0.00 33 827.5
20260906000549 86 292 8.7 15.6 0.00 0.00 0.00 32 827.4
20260905235828 86 310 9.6 15.6 0.00 0.00 0.00 32 827.3
20260905235319 86 273 8.7 15.6 0.00 0.00 0.00 32 827.6
20260905234821 86 279 6.1 11.3 0.00 0.00 0.00 32 827.6
20260905234321 86 317 6.1 10.4 0.00 0.00 0.00 32 827.6
20260905233820 87 329 6.1 10.4 0.00 0.00 0.00 32 827.5
20260905233308 87 319 4.3 7.8 0.00 0.00 0.00 31 827.4
20260905232807 87 321 5.2 8.7 0.00 0.00 0.00 31 827.3
20260905232307 87 329 6.1 9.6 0.00 0.00 0.00 31 827.2
20260905231809 87 332 7.8 13.9 0.00 0.00 0.00 31 827.3
20260905231306 88 348 6.1 13.9 0.00 0.00 0.00 31 827.2
20260905230804 89 5 4.3 6.1 0.00 0.00 0.00 29 827.2
20260905230304 89 48 4.3 7.8 0.00 0.00 0.00 29 827.0
20260905225804 89 355 4.3 7.8 0.00 0.00 0.00 29 827.0
20260905225531 89 41 4.3 7.0 0.00 0.00 0.00 29 826.9
20260905224806 89 32 4.3 6.1 0.00 0.00 0.00 30 827.0
20260905224258 89 27 3.5 6.1 0.00 0.00 0.00 29 826.9
20260905223757 89 18 3.5 6.1 0.00 0.00 0.00 29 826.9